Location: Stuttgart
(48.8069°N, 9.1544°E)
Time: 20:29:08
(UTC+01:00)

ISS - Pass Details

Date: 06 January 2018
Orbit: 402 x 407 km, 51.6° (Epoch: 20 January)

Event Time Altitude Azimuth Distance (km) Brightness Sun altitude
Exits shadow 05:13:55 15° 67° (ENE) 1,221 -0.7 -29.0°
Drops below altitude 10° 05:14:32 10° 69° (ENE) 1,470 -0.2 -28.8°
Sets 05:16:38 0° 72° (ENE) 2,333 1.1 -28.5°
